| time (UTC) | temp C | wind direction | speed KPH | gust KPH | rain 1hr cm | rain 24hr cm | rain mn cm | humidity % | barometer mb |
| 20260505090105 | 20 | 313 | 8.0 | 14.5 | 0.00 | 0.18 | 0.18 | 55 | 1006.2 |
| 20260505084535 | 20 | 305 | 3.2 | 14.5 | 0.00 | 0.18 | 0.18 | 58 | 1006.3 |
| 20260505083047 | 20 | 342 | 3.2 | 9.7 | 0.00 | 0.18 | 0.18 | 60 | 1006.4 |
| 20260505081601 | 20 | 360 | 4.8 | 14.5 | 0.00 | 0.18 | 0.18 | 60 | 1006.3 |
| 20260505080047 | 20 | 296 | 8.0 | 14.5 | 0.00 | 0.18 | 0.18 | 60 | 1006.3 |
| 20260505074504 | 21 | 350 | 1.6 | 8.0 | 0.00 | 0.18 | 0.18 | 60 | 1006.4 |
| 20260505073023 | 20 | 16 | 1.6 | 8.0 | 0.00 | 0.18 | 0.18 | 64 | 1006.6 |
| 20260505071537 | 20 | 76 | 4.8 | 12.9 | 0.00 | 0.18 | 0.18 | 66 | 1006.6 |
| 20260505070052 | 18 | 335 | 1.6 | 6.4 | 0.00 | 0.18 | 0.18 | 70 | 1006.8 |
| 20260505064519 | 17 | 350 | 3.2 | 6.4 | 0.00 | 0.18 | 0.18 | 77 | 1006.9 |
| 20260505063039 | 16 | 216 | 0.0 | 3.2 | 0.00 | 0.18 | 0.18 | 85 | 1007.1 |
| 20260505061616 | 15 | 214 | 0.0 | 3.2 | 0.00 | 0.18 | 0.18 | 93 | 1007.0 |
| 20260505060018 | 14 | 215 | 3.2 | 8.0 | 0.00 | 0.18 | 0.18 | 93 | 1007.3 |
| 20260505054531 | 14 | 217 | 0.0 | 3.2 | 0.00 | 0.18 | 0.18 | 94 | 1007.2 |
| 20260505053029 | 13 | 219 | 0.0 | 0.0 | 0.00 | 0.18 | 0.18 | 95 | 1007.1 |
| 20260505051530 | 13 | 216 | 0.0 | 4.8 | 0.00 | 0.18 | 0.18 | 95 | 1007.2 |
| 20260505041539 | 12 | 227 | 4.8 | 9.7 | 0.00 | 0.18 | 0.18 | 94 | 1007.3 |
| 20260505034537 | 12 | 222 | 0.0 | 0.0 | 0.00 | 0.18 | 0.18 | 93 | 1007.3 |
| 20260505033048 | 13 | 214 | 0.0 | 0.0 | 0.00 | 0.18 | 0.18 | 93 | 1007.4 |
| 20260505031544 | 13 | 215 | 0.0 | 0.0 | 0.00 | 0.18 | 0.18 | 93 | 1007.5 |
| 20260505030110 | 13 | 213 | 0.0 | 6.4 | 0.00 | 0.18 | 0.18 | 93 | 1007.7 |
| 20260505024609 | 13 | 255 | 0.0 | 4.8 | 0.00 | 0.18 | 0.18 | 93 | 1007.8 |
| 20260505023049 | 13 | 30 | 0.0 | 0.0 | 0.00 | 0.18 | 0.18 | 93 | 1007.6 |
| 20260505021613 | 13 | 28 | 0.0 | 0.0 | 0.00 | 0.18 | 0.18 | 92 | 1007.6 |
| 20260505020030 | 13 | 30 | 0.0 | 0.0 | 0.00 | 0.18 | 0.18 | 92 | 1007.6 |
| 20260505014546 | 14 | 32 | 0.0 | 0.0 | 0.00 | 0.18 | 0.18 | 92 | 1007.6 |
| 20260505013010 | 14 | 34 | 0.0 | 0.0 | 0.00 | 0.18 | 0.18 | 91 | 1007.8 |
| 20260505011528 | 14 | 36 | 0.0 | 0.0 | 0.00 | 0.18 | 0.18 | 91 | 1007.9 |
| 20260505010012 | 14 | 36 | 0.0 | 0.0 | 0.00 | 0.18 | 0.18 | 91 | 1008.0 |
| 20260505004513 | 14 | 33 | 0.0 | 0.0 | 0.00 | 0.18 | 0.18 | 90 | 1008.1 |
| 20260505003101 | 14 | 33 | 0.0 | 0.0 | 0.00 | 0.18 | 0.18 | 89 | 1008.2 |
| 20260505001506 | 15 | 43 | 1.6 | 12.9 | 0.03 | 0.18 | 0.18 | 88 | 1008.3 |
| 20260505000110 | 15 | 291 | 1.6 | 8.0 | 0.05 | 0.18 | 0.18 | 88 | 1008.5 |
| 20260504234556 | 15 | 266 | 0.0 | 12.9 | 0.10 | 0.18 | 0.18 | 87 | 1008.8 |
| 20260504233111 | 15 | 154 | 4.8 | 16.1 | 0.10 | 0.18 | 0.18 | 85 | 1008.1 |
| 20260504231602 | 15 | 90 | 11.3 | 22.5 | 0.15 | 0.15 | 0.15 | 83 | 1009.0 |
| 20260504230054 | 15 | 128 | 4.8 | 17.7 | 0.13 | 0.13 | 0.13 | 80 | 1009.6 |
| 20260504224550 | 16 | 88 | 3.2 | 8.0 | 0.08 | 0.08 | 0.08 | 79 | 1010.1 |
| 20260504223037 | 16 | 240 | 4.8 | 14.5 | 0.08 | 0.08 | 0.08 | 76 | 1010.8 |
| 20260504221535 | 17 | 223 | 8.0 | 27.4 | 0.00 | 0.00 | 0.00 | 66 | 1010.9 |
| 20260504214600 | 18 | 68 | 0.0 | 0.0 | 0.00 | 0.00 | 0.00 | 58 | 1009.4 |
| 20260504213029 | 18 | 68 | 0.0 | 3.2 | 0.00 | 0.00 | 0.00 | 55 | 1009.7 |
| 20260504211506 | 18 | 71 | 1.6 | 4.8 | 0.00 | 0.00 | 0.00 | 55 | 1009.7 |
| 20260504210027 | 18 | 74 | 0.0 | 1.6 | 0.00 | 0.00 | 0.00 | 56 | 1009.8 |
| 20260504204531 | 18 | 74 | 0.0 | 0.0 | 0.00 | 0.00 | 0.00 | 56 | 1009.9 |
| 20260504203058 | 19 | 74 | 0.0 | 0.0 | 0.00 | 0.00 | 0.00 | 54 | 1009.8 |
| 20260504201521 | 19 | 74 | 0.0 | 0.0 | 0.00 | 0.00 | 0.00 | 52 | 1009.8 |
| 20260504200012 | 20 | 75 | 0.0 | 8.0 | 0.00 | 0.00 | 0.00 | 50 | 1009.9 |
| 20260504194529 | 20 | 74 | 0.0 | 3.2 | 0.00 | 0.00 | 0.00 | 50 | 1009.8 |
| 20260504193037 | 20 | 74 | 1.6 | 6.4 | 0.00 | 0.00 | 0.00 | 49 | 1009.8 |
| 20260504191526 | 21 | 77 | 0.0 | 1.6 | 0.00 | 0.00 | 0.00 | 48 | 1009.8 |
| 20260504190040 | 21 | 77 | 1.6 | 8.0 | 0.00 | 0.00 | 0.00 | 46 | 1009.7 |
| 20260504184535 | 21 | 38 | 1.6 | 6.4 | 0.00 | 0.00 | 0.00 | 45 | 1009.6 |
| 20260504183044 | 21 | 53 | 1.6 | 6.4 | 0.00 | 0.00 | 0.00 | 44 | 1009.5 |
| 20260504181555 | 22 | 35 | 0.0 | 4.8 | 0.00 | 0.00 | 0.00 | 43 | 1009.5 |
| 20260504180107 | 22 | 42 | 1.6 | 6.4 | 0.00 | 0.00 | 0.00 | 42 | 1009.5 |
| 20260504174556 | 22 | 26 | 1.6 | 8.0 | 0.00 | 0.00 | 0.00 | 41 | 1009.5 |
| 20260504173110 | 22 | 42 | 4.8 | 11.3 | 0.00 | 0.00 | 0.00 | 41 | 1009.5 |
| 20260504171514 | 22 | 47 | 3.2 | 9.7 | 0.00 | 0.00 | 0.00 | 41 | 1009.5 |